FW6883 Weather Reports


Display with metric or nautical units.
time (UTC)temp
F
wind
direction
speed
MPH
gust
MPH
rain 1hr
in
rain 24hr
in
rain mn
in
humidity
%
barometer
mb
20260906144600 58 138 1.0 5.0 0.00 0.24 0.24 89 1006.7
20260906143057 58 118 1.0 4.0 0.00 0.24 0.24 89 1006.6
20260906141555 58 101 1.0 3.0 0.00 0.24 0.24 89 1006.3
20260906140052 59 120 2.0 5.0 0.00 0.24 0.24 86 1006.1
20260906134610 60 107 2.0 5.0 0.01 0.24 0.24 84 1005.9
20260906133053 60 113 1.0 3.0 0.01 0.24 0.24 84 1005.6
20260906131545 59 150 0.0 3.0 0.02 0.24 0.24 87 1005.3
20260906130043 59 134 1.0 3.0 0.02 0.24 0.24 88 1005.6
20260906124540 58 103 1.0 4.0 0.02 0.23 0.23 89 1005.7
20260906123052 59 141 1.0 6.0 0.05 0.23 0.23 87 1006.0
20260906121543 59 153 1.0 3.0 0.13 0.22 0.22 87 1006.0
20260906120035 58 126 0.0 2.0 0.16 0.22 0.22 88 1006.2
20260906114534 58 169 0.0 2.0 0.16 0.21 0.21 87 1006.2
20260906113032 57 191 0.0 3.0 0.13 0.18 0.18 91 1006.4
20260906111529 58 114 0.0 1.0 0.04 0.09 0.09 90 1006.6
20260906110023 58 115 2.0 6.0 0.01 0.06 0.06 86 1006.4
20260906104520 60 129 0.0 2.0 0.01 0.05 0.05 77 1005.7
20260906103017 60 168 2.0 3.0 0.03 0.05 0.05 75 1005.7
20260906101525 60 169 3.0 5.0 0.05 0.05 0.05 76 1005.5
20260906100012 60 318 0.0 1.0 0.05 0.05 0.05 78 1005.9
20260906094510 60 318 0.0 2.0 0.03 0.03 0.03 80 1006.0
20260906093010 60 318 1.0 2.0 0.02 0.02 0.02 82 1006.0
20260906091502 61 317 1.0 3.0 0.00 0.00 0.00 78 1006.4
20260906090117 61 110 1.0 1.0 0.00 0.00 0.00 78 1006.4
20260906084558 62 110 0.0 1.0 0.00 0.00 0.00 77 1006.5
20260906083054 62 118 0.0 2.0 0.00 0.00 0.00 75 1006.5
20260906081557 62 130 0.0 0.0 0.00 0.00 0.00 75 1006.2
20260906080106 62 130 0.0 2.0 0.00 0.00 0.00 75 1006.5
20260906074603 62 136 0.0 4.0 0.00 0.00 0.00 75 1006.5
20260906073058 62 130 0.0 4.0 0.00 0.00 0.00 74 1006.5
20260906071540 62 99 1.0 3.0 0.00 0.00 0.00 73 1006.5
20260906070039 63 109 2.0 5.0 0.00 0.00 0.00 71 1006.2
20260906064534 62 127 0.0 2.0 0.00 0.00 0.00 75 1006.6
20260906063042 62 113 1.0 4.0 0.00 0.00 0.00 76 1006.5
20260906061528 62 115 0.0 2.0 0.00 0.00 0.00 76 1006.7
20260906060026 62 105 0.0 2.0 0.00 0.00 0.00 75 1006.9
20260906054524 62 119 0.0 5.0 0.00 0.00 0.00 75 1006.8
20260906053023 62 128 0.0 4.0 0.00 0.00 0.00 75 1006.7
20260906051537 61 91 0.0 2.0 0.00 0.00 0.00 76 1006.5
20260906050018 61 107 0.0 4.0 0.00 0.00 0.00 76 1006.8
20260906044516 61 109 1.0 4.0 0.00 0.00 0.00 74 1006.9
20260906043016 61 101 0.0 5.0 0.00 0.00 0.00 74 1006.8
20260906041512 59 102 2.0 5.0 0.00 0.00 0.00 66 1007.0
20260906040025 59 121 1.0 5.0 0.00 0.00 0.00 66 1006.8
20260906034509 59 116 2.0 5.0 0.00 0.00 0.00 66 1006.8
20260906033005 59 99 2.0 5.0 0.00 0.00 0.00 66 1006.5
20260906031504 59 112 2.0 5.0 0.00 0.00 0.00 65 1006.7
20260906030002 60 108 3.0 5.0 0.00 0.00 0.00 64 1006.6
20260906024559 61 103 1.0 3.0 0.00 0.00 0.00 63 1006.6
20260906024501 61 104 1.0 3.0 0.00 0.00 0.00 63 1006.6
20260906023057 61 93 1.0 3.0 0.00 0.00 0.00 63 1006.7
20260906021556 62 82 0.0 3.0 0.00 0.00 0.00 62 1006.4
20260906020100 62 89 0.0 4.0 0.00 0.00 0.00 61 1006.5
20260906014552 63 103 1.0 4.0 0.00 0.00 0.00 60 1006.6
20260906013102 62 93 2.0 7.0 0.00 0.00 0.00 59 1006.6
20260906011549 63 85 1.0 6.0 0.00 0.00 0.00 59 1006.6
20260906010045 63 88 2.0 8.0 0.00 0.00 0.00 59 1006.8
20260906004544 63 72 2.0 6.0 0.00 0.00 0.00 58 1006.8
20260906003041 63 93 2.0 7.0 0.00 0.00 0.00 57 1006.8
20260906001539 63 75 3.0 8.0 0.00 0.00 0.00 57 1006.8
20260906000037 64 82 2.0 7.0 0.00 0.00 0.00 56 1006.8
20260905234536 64 70 4.0 9.0 0.00 0.00 0.00 56 1006.7
20260905233040 64 108 2.0 7.0 0.00 0.00 0.00 55 1006.9
20260905231531 64 105 4.0 11.0 0.00 0.00 0.00 55 1007.0
20260905230028 64 94 2.0 10.0 0.00 0.00 0.00 53 1006.9
20260905224526 65 77 4.0 10.0 0.00 0.00 0.00 51 1007.0
20260905223022 65 80 5.0 11.0 0.00 0.00 0.00 49 1007.2
20260905221520 66 100 4.0 11.0 0.00 0.00 0.00 47 1007.3
20260905220018 66 93 0.0 8.0 0.00 0.00 0.00 46 1007.3
20260905214517 66 105 7.0 13.0 0.00 0.00 0.00 48 1007.4
20260905213014 67 82 1.0 9.0 0.00 0.00 0.00 46 1007.5
20260905211510 67 77 7.0 12.0 0.00 0.00 0.00 46 1007.6
20260905210010 67 87 7.0 15.0 0.00 0.00 0.00 43 1007.5
20260905204505 69 86 3.0 10.0 0.00 0.00 0.00 42 1007.5
20260905203005 67 84 4.0 11.0 0.00 0.00 0.00 41 1007.5
20260905201501 67 25 6.0 13.0 0.00 0.00 0.00 43 1007.6
20260905200107 67 106 2.0 9.0 0.00 0.00 0.00 41 1007.8
20260905200002 67 102 1.0 9.0 0.00 0.00 0.00 41 1007.8
20260905194559 68 15 3.0 10.0 0.00 0.00 0.00 40 1007.9
20260905193055 68 74 3.0 9.0 0.00 0.00 0.00 41 1008.1
20260905191553 69 58 3.0 7.0 0.00 0.00 0.00 39 1008.0
20260905190050 67 36 2.0 8.0 0.00 0.00 0.00 40 1008.2
20260905184549 67 345 3.0 7.0 0.00 0.00 0.00 38 1008.3
20260905183046 67 42 3.0 10.0 0.00 0.00 0.00 38 1008.4
20260905181544 67 318 6.0 13.0 0.00 0.00 0.00 39 1008.4
20260905180041 68 39 2.0 15.0 0.00 0.00 0.00 37 1008.5
20260905174538 68 79 2.0 5.0 0.00 0.00 0.00 43 1008.3
20260905173036 67 56 2.0 8.0 0.00 0.00 0.00 45 1008.3
20260905171537 67 58 4.0 8.0 0.00 0.00 0.00 44 1008.2
20260905170028 66 113 3.0 6.0 0.00 0.00 0.00 36 1008.1
20260905164525 66 86 5.0 9.0 0.00 0.00 0.00 35 1008.2
20260905163027 65 95 0.0 8.0 0.00 0.00 0.00 30 1008.1
20260905161519 65 103 2.0 7.0 0.00 0.00 0.00 38 1007.9
20260905160015 66 65 2.0 10.0 0.00 0.00 0.00 33 1008.1
20260905154510 66 117 2.0 8.0 0.00 0.00 0.00 17 1007.6
20260905153010 66 75 2.0 7.0 0.00 0.00 0.00 11 1007.8
20260905151505 65 288 1.0 4.0 0.00 0.00 0.00 14 1007.5
20260905150004 65 312 1.0 4.0 0.00 0.00 0.00 14 1007.5